Weather History for Colby, KS

Change the Weather History Date:

Wednesday, April 23, 2014

  Actual Average (KGLD) Record (KGLD)
Temperature  
Mean Temperature 70 °F 52 °F  
Max Temperature 86 °F 66 °F 90 °F (1989)
Min Temperature 53 °F 37 °F 21 °F (2013)
Degree Days  
Heating Degree Days 0 14  
Month to date heating degree days 393  
Since 1 July heating degree days 5568  
Cooling Degree Days 6 0  
Month to date cooling degree days 0  
Year to date cooling degree days 0  
Growing Degree Days 20 (Base 50)    
Moisture  
Dew Point 45 °F    
Average Humidity 47    
Maximum Humidity 72    
Minimum Humidity 18    
Precipitation  
Precipitation 0.00 in 0.06 in 0.89 in (1913)
Month to date precipitation 1.15  
Year to date precipitation 3.09  
Snow  
Snow 0.00 in 0.10 in - ()
Month to date snowfall 3.7  
Since 1 July snowfall 34.5  
Snow Depth -    
Sea Level Pressure  
Sea Level Pressure 29.61 in    
Wind  
Wind Speed 22 mph (SSW)    
Max Wind Speed 32 mph    
Max Gust Speed 43 mph    
Visibility 10 miles    
Events Rain    
T = Trace of Precipitation, MM = Missing Value Source: NWS Daily Summary

Daily Weather History Graph

Daily Weather History Graph

Search for Another Location

Airport:

Trip Planner

Search our weather history database for the weather conditions in past years. The results will help you decide how hot, cold, wet, or windy it might be!

Date:

Astronomy

Apr. 23, 2014 Rise Set
Actual Time 6:55 AM CDT 8:29 PM CDT
Civil Twilight 6:27 AM CDT 8:58 PM CDT
Nautical Twilight 5:53 AM CDT 9:32 PM CDT
Astronomical Twilight 5:16 AM CDT 10:09 PM CDT
Moon 3:26 AM CDT (4/23) 2:42 PM CDT (4/23)
Length of Visible Light 14h 31m
Length of Day
13h 34m
Waning Crescent, 34% of the Moon is Illuminated
Apr 23
Waning Crescent
Apr 29
New
May 6
First Quarter
May 14
Full
May 21
Last Quarter

Hourly Weather History & Observations

Time (CDT) Temp. Dew Point Humidity Pressure Visibility Wind Dir Wind Speed Gust Speed Precip Events Conditions
12:10 AM 57.2 °F 44.6 °F 63% 29.77 in 10.0 mi SSE 20.7 mph 26.5 mph N/A   Clear
12:30 AM 59.0 °F 44.6 °F 59% 29.77 in 10.0 mi SE 25.3 mph 32.2 mph N/A   Clear
12:50 AM 59.0 °F 42.8 °F 55% 29.76 in 10.0 mi SSE 24.2 mph 32.2 mph N/A   Clear
1:10 AM 57.2 °F 42.8 °F 59% 29.75 in 10.0 mi SSE 26.5 mph 32.2 mph N/A   Clear
1:30 AM 55.4 °F 42.8 °F 63% 29.74 in 10.0 mi SSE 25.3 mph 33.4 mph N/A   Clear
1:50 AM 55.4 °F 44.6 °F 67% 29.73 in 10.0 mi SSE 26.5 mph 34.5 mph N/A   Clear
2:10 AM 55.4 °F 44.6 °F 67% 29.72 in 10.0 mi SSE 27.6 mph 32.2 mph N/A   Clear
2:30 AM 55.4 °F 44.6 °F 67% 29.71 in 10.0 mi SSE 25.3 mph 34.5 mph N/A   Clear
2:50 AM 57.2 °F 46.4 °F 67% 29.69 in 10.0 mi SSE 19.6 mph 32.2 mph N/A   Clear
3:10 AM 59.0 °F 48.2 °F 67% 29.69 in 10.0 mi South 32.2 mph 39.1 mph N/A   Clear
3:30 AM 59.0 °F 50.0 °F 72% 29.69 in 10.0 mi South 27.6 mph 38.0 mph N/A   Clear
3:50 AM 59.0 °F 50.0 °F 72% 29.68 in 10.0 mi South 23.0 mph 35.7 mph N/A   Clear
4:10 AM 59.0 °F 50.0 °F 72% 29.67 in 10.0 mi South 20.7 mph 27.6 mph N/A   Clear
4:30 AM 59.0 °F 50.0 °F 72% 29.67 in 10.0 mi South 19.6 mph 28.8 mph N/A   Clear
4:50 AM 59.0 °F 50.0 °F 72% 29.66 in 10.0 mi South 24.2 mph 31.1 mph N/A   Clear
5:10 AM 59.0 °F 50.0 °F 72% 29.65 in 10.0 mi South 21.9 mph 27.6 mph N/A   Clear
5:30 AM 59.0 °F 48.2 °F 67% 29.64 in 10.0 mi South 18.4 mph 27.6 mph N/A   Clear
5:50 AM 59.0 °F 48.2 °F 67% 29.64 in 10.0 mi South 20.7 mph 26.5 mph N/A   Clear
6:10 AM 59.0 °F 46.4 °F 63% 29.63 in 10.0 mi South 23.0 mph 28.8 mph N/A   Clear
6:30 AM 59.0 °F 46.4 °F 63% 29.63 in 10.0 mi South 23.0 mph 28.8 mph N/A   Clear
6:50 AM 59.0 °F 44.6 °F 59% 29.63 in 10.0 mi South 21.9 mph 29.9 mph N/A   Clear
7:10 AM 60.8 °F 44.6 °F 55% 29.63 in 10.0 mi South 23.0 mph 29.9 mph N/A   Clear
7:30 AM 60.8 °F 44.6 °F 55% 29.62 in 10.0 mi South 24.2 mph 31.1 mph N/A   Clear
7:50 AM 60.8 °F 44.6 °F 55% 29.62 in 10.0 mi South 23.0 mph 31.1 mph N/A   Clear
8:10 AM 60.8 °F 44.6 °F 55% 29.63 in 10.0 mi South 21.9 mph 28.8 mph N/A   Clear
8:30 AM 62.6 °F 44.6 °F 52% 29.62 in 10.0 mi SSW 19.6 mph 26.5 mph N/A   Clear
8:50 AM 62.6 °F 44.6 °F 52% 29.62 in 10.0 mi South 19.6 mph 26.5 mph N/A   Clear
9:10 AM 64.4 °F 44.6 °F 49% 29.61 in 10.0 mi SSW 21.9 mph 33.4 mph N/A   Clear
9:30 AM 64.4 °F 44.6 °F 49% 29.61 in 10.0 mi SSW 25.3 mph 31.1 mph N/A   Clear
9:50 AM 66.2 °F 44.6 °F 46% 29.60 in 10.0 mi SSW 23.0 mph 31.1 mph N/A   Clear
10:10 AM 68.0 °F 46.4 °F 46% 29.61 in 10.0 mi SSW 21.9 mph 32.2 mph N/A   Clear
10:30 AM 69.8 °F 46.4 °F 43% 29.60 in 10.0 mi SSW 20.7 mph 29.9 mph N/A   Unknown
10:50 AM 71.6 °F 46.4 °F 41% 29.59 in 10.0 mi SSW 27.6 mph 34.5 mph N/A   Clear
11:10 AM 73.4 °F 48.2 °F 41% 29.59 in 10.0 mi SSW 21.9 mph 35.7 mph N/A   Clear
11:30 AM 73.4 °F 48.2 °F 41% 29.59 in 10.0 mi SSW 24.2 mph 31.1 mph N/A   Clear
11:50 AM 73.4 °F 48.2 °F 41% 29.59 in 10.0 mi SW 24.2 mph 33.4 mph N/A   Clear
12:10 PM 75.2 °F 48.2 °F 38% 29.58 in 10.0 mi SSW 23.0 mph 29.9 mph N/A   Clear
12:30 PM 77.0 °F 50.0 °F 39% 29.58 in 10.0 mi SSW 24.2 mph 29.9 mph N/A   Clear
12:50 PM 78.8 °F 50.0 °F 36% 29.58 in 10.0 mi SSW 20.7 mph 33.4 mph N/A   Clear
1:10 PM 80.6 °F 48.2 °F 32% 29.57 in 10.0 mi SSW 20.7 mph 28.8 mph N/A   Clear
1:50 PM 80.6 °F 42.8 °F 26% 29.57 in 10.0 mi SW 19.6 mph 25.3 mph N/A   Clear
2:10 PM 80.6 °F 41.0 °F 24% 29.57 in 10.0 mi WSW 17.3 mph 26.5 mph N/A   Clear
2:30 PM 82.4 °F 41.0 °F 23% 29.57 in 10.0 mi WSW 17.3 mph 25.3 mph N/A   Clear
2:50 PM 82.4 °F 41.0 °F 23% 29.57 in 10.0 mi SSW 13.8 mph 19.6 mph N/A   Clear
3:10 PM 82.4 °F 41.0 °F 23% 29.56 in 10.0 mi SSW 11.5 mph - N/A   Clear
3:30 PM 84.2 °F 42.8 °F 23% 29.54 in 10.0 mi South 11.5 mph 20.7 mph N/A   Clear
3:50 PM 86.0 °F 39.2 °F 19% 29.53 in 10.0 mi SSW 15.0 mph 28.8 mph N/A   Clear
4:10 PM 86.0 °F 37.4 °F 18% 29.52 in 10.0 mi SSW 13.8 mph 25.3 mph N/A   Clear
4:30 PM 86.0 °F 42.8 °F 22% 29.51 in 10.0 mi South 10.4 mph 20.7 mph N/A   Scattered Clouds
4:50 PM 80.6 °F 44.6 °F 28% 29.49 in 10.0 mi ENE 13.8 mph 39.1 mph N/A   Scattered Clouds
5:10 PM 77.0 °F 46.4 °F 34% 29.49 in 10.0 mi NNE 11.5 mph 17.3 mph N/A   Mostly Cloudy
5:30 PM 77.0 °F 46.4 °F 34% 29.50 in 10.0 mi NE 12.7 mph 16.1 mph N/A   Overcast
6:10 PM 73.4 °F 46.4 °F 38% 29.49 in 10.0 mi SE 3.5 mph - N/A   Overcast
6:30 PM 75.2 °F 48.2 °F 38% 29.49 in 10.0 mi North 13.8 mph 24.2 mph N/A Rain Light Rain
6:50 PM 71.6 °F 50.0 °F 46% 29.47 in 10.0 mi NNE 19.6 mph 26.5 mph N/A   Scattered Clouds
7:10 PM 73.4 °F 48.2 °F 41% 29.48 in 10.0 mi NNW 15.0 mph - N/A   Mostly Cloudy
7:30 PM 71.6 °F 48.2 °F 43% 29.48 in 10.0 mi North 13.8 mph - N/A   Scattered Clouds
7:50 PM 68.0 °F 50.0 °F 52% 29.48 in 10.0 mi NNW 15.0 mph - N/A   Clear
8:10 PM 68.0 °F 50.0 °F 52% 29.49 in 10.0 mi NNW 16.1 mph 21.9 mph N/A   Clear
8:30 PM 66.2 °F 48.2 °F 52% 29.53 in 10.0 mi North 16.1 mph 19.6 mph N/A   Clear
8:50 PM 66.2 °F 41.0 °F 40% 29.59 in 10.0 mi North 16.1 mph - N/A   Scattered Clouds
9:10 PM 66.2 °F 37.4 °F 35% 29.59 in 10.0 mi NW 17.3 mph 26.5 mph N/A   Overcast
9:30 PM 62.6 °F 33.8 °F 34% 29.61 in 10.0 mi NW 18.4 mph 28.8 mph N/A   Mostly Cloudy
9:50 PM 62.6 °F 32.0 °F 32% 29.64 in 10.0 mi NNW 27.6 mph 35.7 mph N/A   Scattered Clouds
10:10 PM 62.6 °F 32.0 °F 32% 29.65 in 7.0 mi NNW 26.5 mph 35.7 mph N/A   Scattered Clouds
10:30 PM 59.0 °F 33.8 °F 39% 29.67 in 5.0 mi NNW 28.8 mph 42.6 mph N/A   Haze
10:50 PM 57.2 °F 33.8 °F 41% 29.70 in 7.0 mi NNW 28.8 mph 38.0 mph N/A   Clear
11:30 PM 53.6 °F 37.4 °F 54% 29.73 in 10.0 mi NNW 27.6 mph 36.8 mph N/A   Mostly Cloudy